Back to catalog

GAOFEN-5 02

AliveScienceSSO
NORAD 49122·PAYLOAD·🇨🇳 China

Launched Sep 7, 2021 from Taiyuan Satellite Launch Center

Loading…

Next Passes (next 24 hours)

TLE

FreshSource: Space-Track

Epoch: Sep 14, 2026, 15:10 UTC

1 49122U 21079A   26257.63227687  .00000088  00000-0  29264-4 0  9993
2 49122  98.2543 331.2600 0002125  77.7021 282.4416 14.57679832267116

Track GAOFEN-5 02 in real time with AllMySat

Download on the App Store